15 daagse weersverwachting Sevilla (ES)

  • Overzicht
  • Per uur
  • 15 dagen
  • Extra
  • Vergelijk
  • Kaarten
  • Dagkaart
  • Meer »
  • Info
  • Statistieken
  • Directe link
    Temp 6h Neerslag Wind  
 08:12     20:45    Daglengte: 12:33 Vandaag
20:00
14°
2.3 mm
4
 08:10     20:46    Daglengte: 12:36 Morgen
02:00
13°
6.9 mm
3
08:00
13°
25.7 mm
4
14:00
17°
22.0 mm
6
20:00
15°
24.6 mm
5
 08:09     20:47    Daglengte: 12:38 Woensdag 01 Apr
02:00
12°
15.3 mm
4
08:00
 
2
14:00
15°
 
4
20:00
13°
14.1 mm
4
 08:07     20:48    Daglengte: 12:41 Donderdag 02 Apr
02:00
10°
5.1 mm
2
08:00
52.0 mm
2
Locatie info
Region: AndalucŪa
Latitude: 37.3879°N
Longitude: -6.0020°E
16 masl
Postcode: 41001
Temp/Neerslag /Baro Onweer/Dauwpunt
    Temp Baro 1h Neerslag Dauwpunt Wind UV Bewolking  
 08:12     20:45    Daglengte: 12:33 Vandaag
15:00
18°
1010.7 hPa
22%
8.5°
4
Windvlaag: 2.8 km/h
88%
16:00
18°
1009.9 hPa 0.4 mm
73%
8.9°
4
Windvlaag: 3.4 km/h
87%
17:00
17°
1009.1 hPa 0.4 mm
76%
7.9°
5
Windvlaag: 3.3 km/h
86%
18:00
17°
1008.6 hPa 0.8 mm
76%
7.7°
6
Windvlaag: 3.4 km/h
89%
19:00
16°
1008.4 hPa
76%
7.3°
5
Windvlaag: 3.4 km/h
88%
20:00
14°
1008.1 hPa 0.6 mm
80%
8.3°
4
Windvlaag: 2.4 km/h
72%
21:00
13°
1007.8 hPa 0.5 mm
82%
9.4°
2
Windvlaag: 2 km/h
69%
22:00
13°
1007.8 hPa
77%
9.8°
2
Windvlaag: 1.3 km/h
85%
23:00
13°
1007.6 hPa
80%
10.0°
2
Windvlaag: 1.6 km/h
89%
 08:10     20:46    Daglengte: 12:36 Morgen
00:00
13°
1006.8 hPa 0.6 mm
80%
10.4°
2
Windvlaag: 2.4 km/h
91%
01:00
13°
1006.1 hPa 2.1 mm
82%
10.8°
2
Windvlaag: 3 km/h
91%
02:00
13°
1005.4 hPa 3.6 mm
82%
11.0°
3
Windvlaag: 3.5 km/h
89%
03:00
13°
1004.5 hPa 3.9 mm
82%
11.1°
3
Windvlaag: 4.6 km/h
90%
04:00
13°
1003.7 hPa 3.7 mm
82%
10.9°
4
Windvlaag: 4.7 km/h
85%
05:00
12°
1003.0 hPa 4.1 mm
82%
10.9°
3
Windvlaag: 4.6 km/h
84% warningclass
06:00
13°
1002.4 hPa 4.3 mm
82%
11.0°
3
Windvlaag: 4.3 km/h
86% warningclass
07:00
13°
1002.5 hPa 6.1 mm
75%
11.6°
3
Windvlaag: 3.9 km/h
82% warningclass
08:00
13°
1002.8 hPa 3.6 mm
74%
11.8°
4
Windvlaag: 3.7 km/h
79%
09:00
13°
1003.2 hPa 3.3 mm
82%
11.8°
4
Windvlaag: 3.6 km/h
83%
10:00
14°
1003.8 hPa 3.2 mm
82%
12.1°
4
Windvlaag: 4.1 km/h
59%
11:00
15°
1004.1 hPa 4.1 mm
82%
12.2°
4
Windvlaag: 4.2 km/h
66%
12:00
16°
1004.6 hPa 4.2 mm
82%
12.9°
5
Windvlaag: 4.2 km/h
56%
13:00
17°
1004.8 hPa 3.5 mm
82%
13.2°
6
Windvlaag: 5.2 km/h
61%
14:00
17°
1004.8 hPa 3.6 mm
82%
13.0°
6
Windvlaag: 5.5 km/h
65%
15:00
18°
1004.9 hPa 4.4 mm
82%
12.5°
6
Windvlaag: 5.6 km/h
39%
16:00
18°
1004.6 hPa 3.9 mm
82%
12.6°
6
Windvlaag: 6.1 km/h
49%
17:00
18°
1004.5 hPa 4.0 mm
82%
12.6°
6
Windvlaag: 5.9 km/h
63%
18:00
16°
1004.7 hPa 4.1 mm
82%
12.2°
6
Windvlaag: 5.9 km/h
29%
19:00
16°
1005.1 hPa 4.2 mm
82%
12.5°
6
Windvlaag: 4.9 km/h
65%
20:00
15°
1005.7 hPa 4.0 mm
82%
12.5°
5
Windvlaag: 4.9 km/h
44%
21:00
14°
1006.2 hPa 3.8 mm
81%
12.3°
5
Windvlaag: 4.6 km/h
55%
22:00
14°
1007.0 hPa 3.8 mm
80%
12.0°
4
Windvlaag: 4.5 km/h
48%
23:00
14°
1007.7 hPa 3.9 mm
82%
11.9°
4
Windvlaag: 4.3 km/h
55%
 08:09     20:47    Daglengte: 12:38 Woensdag 01 Apr
00:00
13°
1008.1 hPa 3.8 mm
81%
11.5°
4
Windvlaag: 3.8 km/h
50% warningclass
01:00
13°
1008.5 hPa
37%
11.2°
4
Windvlaag: 3.4 km/h
44%
02:00
12°
1008.9 hPa
29%
10.0°
4
Windvlaag: 2.9 km/h
31%
03:00
12°
1009.0 hPa
23%
9.7°
3
Windvlaag: 2.5 km/h
28%
04:00
11°
1009.2 hPa
60%
9.5°
3
Windvlaag: 1.5 km/h
17%
05:00
10°
1009.6 hPa
19%
9.1°
2
Windvlaag: 0.4 km/h
4%
06:00
10°
Voelt als: 8.8°
1010.3 hPa
19%
8.6°
2
Windvlaag: 1.1 km/h
5%
07:00
Voelt als: 8.4°
1011.0 hPa
18%
8.2°
2
Windvlaag: 0.9 km/h
6%
08:00
Voelt als: 7.9°
1011.8 hPa
18%
7.9°
2
Windvlaag: 0.5 km/h
6%
09:00
Voelt als: 8.1°
1012.9 hPa
14%
7.8°
2
Windvlaag: 0.6 km/h
8%
10:00
10°
1013.7 hPa
14%
7.6°
2
Windvlaag: 0.7 km/h
10%
11:00
12°
1014.0 hPa
27%
7.9°
2
Windvlaag: -0.4 km/h
34%
12:00
13°
1014.1 hPa
99%
5.5°
3
Windvlaag: 0.6 km/h
28%
13:00
14°
1013.9 hPa
100%
3.4°
3
Windvlaag: 1.4 km/h
19%
14:00
15°
1013.3 hPa
100%
2.8°
4
Windvlaag: 2.3 km/h
70%
15:00
16°
1012.7 hPa 4.7 mm
100%
2.7°
4
Windvlaag: 3 km/h
77%
16:00
15°
1012.1 hPa
100%
3.4°
5
Windvlaag: 3.6 km/h
78%
17:00
15°
1011.7 hPa
100%
3.8°
5
Windvlaag: 3.7 km/h
59%
18:00
15°
1011.6 hPa 4.5 mm
100%
4.3°
5
Windvlaag: 3.8 km/h
69%
19:00
14°
1012.0 hPa 4.9 mm
100%
4.7°
5
Windvlaag: 3.3 km/h
59%
20:00
13°
1012.3 hPa
100%
5.8°
4
Windvlaag: 3 km/h
55%
21:00
12°
1012.7 hPa
97%
7.0°
3
Windvlaag: 3.1 km/h
40%
22:00
11°
1013.2 hPa
86%
7.8°
3
Windvlaag: 2.7 km/h
24%
23:00
11°
1013.9 hPa
30%
8.4°
2
Windvlaag: 2.5 km/h
42%
 08:07     20:48    Daglengte: 12:41 Donderdag 02 Apr
00:00
10°
Voelt als: 9.3°
1014.1 hPa
28%
8.6°
2
Windvlaag: 1.9 km/h
67%
01:00
10°
Voelt als: 9.3°
1014.0 hPa
21%
8.8°
2
Windvlaag: 1.5 km/h
71%
02:00
10°
Voelt als: 9.1°
1013.5 hPa 5.1 mm
21%
9.0°
2
Windvlaag: 1.2 km/h
62%
03:00
10°
Voelt als: 9.2°
1013.2 hPa 7.8 mm
21%
8.9°
2
Windvlaag: 3.6 km/h
58%
04:00
Voelt als: 9.0°
1012.8 hPa 8.8 mm
21%
8.7°
2
Windvlaag: 3.2 km/h
55%
05:00
Voelt als: 8.8°
1012.5 hPa 10.3 mm
21%
8.7°
2
Windvlaag: 1.9 km/h
52%
06:00
Voelt als: 8.6°
1012.3 hPa 8.6 mm
21%
8.5°
2
Windvlaag: -0.2 km/h
45%
07:00
Voelt als: 8.2°
1012.1 hPa 8.4 mm
21%
8.4°
2
Windvlaag: -2.4 km/h
43%
08:00
Voelt als: 8.0°
1012.0 hPa 8.3 mm
21%
8.2°
2
Windvlaag: -0.8 km/h
34%
09:00
Voelt als: 8.9°
1012.8 hPa
21%
7.8°
2
Windvlaag: 6.8 km/h
40%
10:00
11°
1013.2 hPa
21%
8.1°
1
Windvlaag: 4.7 km/h
44%
11:00
12°
1013.7 hPa
21%
8.2°
1
Windvlaag: 3.7 km/h
48%
12:00
13°
1014.2 hPa
21%
8.1°
1
Windvlaag: 4.2 km/h
52%
13:00
14°
1014.5 hPa
21%
7.7°
1
Windvlaag: 1.9 km/h
53%
14:00
16°
1014.8 hPa
21%
6.8°
1
Windvlaag: 0.3 km/h
47%
Temp/Neerslag /Baro Onweer/Dauwpunt
    Temp Baro Neerslag Dauwpunt Wind Bewolking  
 08:12     20:45    Daglengte: 12:33 Vandaag
17:00
17°
1009.1 hPa 0.8 mm 7.9°
5
86%
20:00
14°
1008.1 hPa 1.4 mm 8.3°
4
72%
23:00
13°
1007.6 hPa 0.5 mm 10.0°
2
89%
 08:10     20:46    Daglengte: 12:36 Morgen
02:00
13°
1005.4 hPa 6.3 mm 11.0°
3
89%
05:00
12°
1003.0 hPa 11.7 mm 10.9°
3
84% warningclass
08:00
13°
1002.8 hPa 14.0 mm 11.8°
4
79%
11:00
15°
1004.1 hPa 10.6 mm 12.2°
4
66%
14:00
17°
1004.8 hPa 11.4 mm 13.0°
6
65%
17:00
18°
1004.5 hPa 12.4 mm 12.6°
6
63%
20:00
15°
1005.7 hPa 12.2 mm 12.5°
5
44%
23:00
14°
1007.7 hPa 11.5 mm 11.9°
4
55%
 08:09     20:47    Daglengte: 12:38 Woensdag 01 Apr
02:00
12°
1008.9 hPa 3.8 mm 10.0°
4
31%
05:00
10°
1009.6 hPa   9.1°
2
4%
08:00
Voelt als: 7.9°
1011.8 hPa   7.9°
2
6%
11:00
12°
1014.0 hPa   7.9°
2
34%
14:00
15°
1013.3 hPa   2.8°
4
70%
17:00
15°
1011.7 hPa 4.7 mm 3.8°
5
59%
20:00
13°
1012.3 hPa 9.4 mm 5.8°
4
55%
23:00
11°
1013.9 hPa   8.4°
2
42%
 08:07     20:48    Daglengte: 12:41 Donderdag 02 Apr
02:00
10°
Voelt als: 9.1°
1013.5 hPa 5.1 mm 9.0°
2
62%
05:00
Voelt als: 8.8°
1012.5 hPa 26.9 mm 8.7°
2
52%
08:00
Voelt als: 8.0°
1012.0 hPa 25.2 mm 8.2°
2
34%
11:00
12°
1013.7 hPa   8.2°
1
48%
14:00
16°
1014.8 hPa   6.8°
1
47%
17:00
16°
1014.3 hPa 44.5 mm 6.0°
3
52%
20:00
17°
1014.2 hPa 44.6 mm 6.0°
4
47%
23:00
13°
1015.4 hPa 44.6 mm 7.9°
3
24%
 08:06     20:49    Daglengte: 12:43 Vrijdag 03 Apr
02:00
Voelt als: 8.7°
1016.4 hPa 44.6 mm 8.3°
2
0%
05:00
Voelt als: 7.1°
1015.7 hPa 44.6 mm 7.3°
2
46%
08:00
Voelt als: 5.4°
1015.1 hPa 44.6 mm 6.4°
2
92%
11:00
13°
1014.8 hPa 44.6 mm 8.6°
3
46%
14:00
19°
1014.6 hPa 44.6 mm 8.9°
3
0%
17:00
19°
1012.8 hPa 44.6 mm 8.5°
4
45%
20:00
19°
1011.1 hPa 44.6 mm 8.1°
4
91%
23:00
15°
1012.1 hPa 44.6 mm 7.7°
3
91%
 08:04     20:49    Daglengte: 12:45 Zaterdag 04 Apr
02:00
12°
1013.0 hPa 44.6 mm 7.0°
3
91%
05:00
12°
1012.3 hPa 44.6 mm 7.2°
4
91%
08:00
13°
1011.8 hPa 44.6 mm 7.5°
5
91%
11:00
15°
1012.4 hPa 44.6 mm 8.5°
4
91%
14:00
17°
1013.1 hPa 44.7 mm 9.5°
3
92%
17:00
17°
1013.5 hPa 47.1 mm 10.7°
2
91%
20:00
16°
1013.9 hPa 51.8 mm 11.5°
2
90%
23:00
14°
1015.2 hPa 52.2 mm 10.8°
2
71%
 08:03     20:50    Daglengte: 12:47 Zondag 05 Apr
02:00
12°
1016.3 hPa 52.2 mm 9.9°
1
52%
05:00
11°
1017.1 hPa 52.2 mm 9.2°
2
38%
08:00
10°
1018.0 hPa 52.2 mm 8.5°
2
24%
11:00
15°
1019.3 hPa 52.2 mm 10.8°
2
55%
14:00
19°
1020.6 hPa 52.2 mm 12.6°
2
87%
17:00
19°
1020.5 hPa 52.8 mm 13.4°
2
88%
20:00
19°
1020.5 hPa 52.9 mm 14.0°
2
90%
23:00
16°
1021.9 hPa 52.9 mm 13.4°
1
91%
 08:01     20:51    Daglengte: 12:50 Maandag 06 Apr
02:00
14°
1023.3 hPa 52.9 mm 12.9°
1
91%
05:00
13°
1023.4 hPa 52.9 mm 12.0°
1
90%
08:00
12°
1023.4 hPa 52.9 mm 11.1°
2
90%
11:00
17°
1024.0 hPa 52.9 mm 12.2°
1
90%
14:00
21°
1024.5 hPa 105.7 mm 12.1°
1
90%
20:00
21°
1022.4 hPa 105.8 mm 12.7°
2
90%
 08:00     20:52    Daglengte: 12:52 Dinsdag 07 Apr
02:00
14°
1024.3 hPa 105.9 mm 12.5°
1
87%
08:00
12°
1023.2 hPa 105.9 mm 9.1°
3
91%
14:00
22°
1024.0 hPa 105.9 mm 10.2°
1
90%
20:00
22°
1021.8 hPa 105.9 mm 14.0°
2
88%
 07:58     20:53    Daglengte: 12:55 Woensdag 08 Apr
02:00
16°
1023.9 hPa 105.9 mm 12.7°
1
91%
08:00
14°
1023.6 hPa 105.9 mm 12.2°
1
44%
14:00
23°
1024.0 hPa 105.9 mm 11.3°
0
28%
20:00
23°
1022.1 hPa 106.2 mm 14.2°
1
78%
 07:57     20:54    Daglengte: 12:57 Donderdag 09 Apr
02:00
17°
1019.7 hPa 106.5 mm 14.9°
2
1%
08:00
15°
1017.4 hPa 106.5 mm 13.2°
2
0%
14:00
23°
1021.3 hPa 0.5 mm 12.6°
0
50%
20:00
22°
1019.1 hPa 0.2 mm 13.6°
1
53%
 07:56     20:55    Daglengte: 12:59 Vrijdag 10 Apr
02:00
15°
1020.8 hPa   11.0°
1
45%
08:00
13°
1020.2 hPa   9.9°
1
42%
14:00
23°
1020.7 hPa   11.5°
1
35%
20:00
23°
1018.5 hPa   13.5°
1
33%
 07:54     20:56    Daglengte: 13:02 Zaterdag 11 Apr
02:00
15°
1020.1 hPa   11.2°
1
33%
08:00
13°
1019.6 hPa   10.1°
2
23%
14:00
23°
1020.1 hPa 0.2 mm 11.1°
2
17%
20:00
23°
1018.1 hPa 0.5 mm 12.8°
0
25%
 07:53     20:57    Daglengte: 13:04 Zondag 12 Apr
02:00
14°
1019.9 hPa   10.1°
1
20%
08:00
12°
1019.4 hPa   8.9°
1
14%
14:00
23°
1019.5 hPa 0.3 mm 10.9°
1
20%
20:00
22°
1017.0 hPa 0.3 mm 12.5°
1
25%
 07:51     20:58    Daglengte: 13:07 Maandag 13 Apr
02:00
14°
1018.5 hPa 0.1 mm 10.2°
0
24%
08:00
12°
1017.9 hPa   8.7°
1
18%
14:00
23°
1017.9 hPa   9.7°
0
22%
20:00
22°
1015.7 hPa 0.2 mm 11.3°
1
20%
 07:50     20:58    Daglengte: 13:08 Dinsdag 14 Apr
02:00
14°
1017.2 hPa   9.5°
1
22%
08:00
12°
1016.8 hPa   8.0°
1
25%
14:00
23°
1017.1 hPa   9.1°
1
21%
  CAPE Lifted Index Hail Supercell Tornado SRH 3km CL BTM PRES CL TOP PRES Swiss DWD icon SMHI TS
 08:12     20:45    Daglengte: 12:33 Vandaag
15:00 87 J/kg 1.6 K 0 % 0 % 0 % 0 m²/s² 0 0 2.14 61
16:00 124 J/kg 1.3 K 0 % 0 % 0 % 0 m²/s² 0 0 1.63 3
17:00 81 J/kg 1.6 K 0 % 0 % 0 % 0 m²/s² 0 0 1.93 61
18:00 46 J/kg 2.3 K 0 % 0 % 0 % 0 m²/s² 0 0 2.51 61
19:00 60 J/kg 2.7 K 0 % 0 % 0 % 0 m²/s² 0 0 2.94 61
20:00 62 J/kg 1.5 K 0 % 0 % 0 % 0 m²/s² 0 0 1.68 61
21:00 68 J/kg 1.1 K 0 % 0 % 0 % 0 m²/s² 0 0 1.7 3
22:00 65 J/kg 1.3 K 0 % 0 % 0 % 0 m²/s² 0 0 2.17 3
23:00 1 J/kg 3.0 K 0 % 0 % 0 % 0 m²/s² 0 0 3.36 3
 08:10     20:46    Daglengte: 12:36 Morgen
00:00 7 J/kg 1.2 K 0 % 0 % 0 % 0 m²/s² 0 0 1.29 3
01:00 17 J/kg 2.1 K 0 % 0 % 0 % 0 m²/s² 0 0 2.1 80
02:00 27 J/kg 1.8 K 0 % 0 % 0 % 0 m²/s² 0 0 2.1 80
03:00 7 J/kg -0.2 K 0 % 0 % 0 % 0 m²/s² 0 0 0.61 80
04:00 26 J/kg -0.7 K 0 % 0 % 0 % 0 m²/s² 0 0 -0.04 80
05:00 0 J/kg -1.6 K 0 % 0 % 0 % 0 m²/s² 0 0 -0.4 95
06:00 166 J/kg -3.3 K 0 % 0 % 0 % 0 m²/s² 0 0 -2.97 95
07:00 413 J/kg -3.3 K 0 % 0 % 0 % 0 m²/s² 0 0 -3 80
08:00 411 J/kg -1.6 K 0 % 0 % 0 % 0 m²/s² 0 0 -0.76 3
09:00 365 J/kg -1.9 K 0 % 0 % 0 % 0 m²/s² 0 0 -0.82 80
10:00 710 J/kg -2.4 K 0 % 0 % 0 % 0 m²/s² 0 0 -1.53 80
11:00 664 J/kg -2.7 K 0 % 0 % 0 % 0 m²/s² 0 0 -0.78 80
12:00 598 J/kg -2.4 K 0 % 0 % 0 % 0 m²/s² 0 0 -0.48 3
13:00 504 J/kg -1.9 K 0 % 0 % 0 % 0 m²/s² 0 0 0.08 3
14:00 444 J/kg -1.8 K 0 % 0 % 0 % 0 m²/s² 0 0 0.72 80
15:00 428 J/kg -2.0 K 0 % 0 % 0 % 0 m²/s² 0 0 0.82 2
16:00 385 J/kg -1.7 K 0 % 0 % 0 % 0 m²/s² 0 0 1.15 80
17:00 390 J/kg -1.7 K 0 % 0 % 0 % 0 m²/s² 0 0 1.15 80
18:00 421 J/kg -1.6 K 0 % 0 % 0 % 0 m²/s² 0 0 1.01 80
19:00 454 J/kg -1.8 K 0 % 0 % 0 % 0 m²/s² 0 0 0.87 80
20:00 533 J/kg -2.2 K 0 % 0 % 0 % 0 m²/s² 0 0 0.86 80
21:00 573 J/kg -2.4 K 0 % 0 % 0 % 0 m²/s² 0 0 0.33 2
22:00 561 J/kg -2.2 K 0 % 0 % 0 % 0 m²/s² 0 0 -0.52 2
23:00 614 J/kg -2.5 K 0 % 0 % 0 % 0 m²/s² 0 0 -1.84 80
 08:09     20:47    Daglengte: 12:38 Woensdag 01 Apr
00:00 641 J/kg -2.9 K 0 % 0 % 0 % 0 m²/s² 0 0 -2.24 80
01:00 546 J/kg -2.4 K 0 % 0 % 0 % 0 m²/s² 0 0 -1.74 2
02:00 318 J/kg -0.5 K 0 % 0 % 0 % 0 m²/s² 0 0 0.1 2
03:00 138 J/kg 2.2 K 0 % 0 % 0 % 0 m²/s² 0 0 3.22 3
04:00 73 J/kg 3.8 K 0 % 0 % 0 % 0 m²/s² 0 0 9.2 3
05:00 35 J/kg 3.9 K 0 % 0 % 0 % 0 m²/s² 0 0 11.64 1
06:00 5 J/kg 4.1 K 0 % 0 % 0 % 0 m²/s² 0 0 12.98 1
07:00 0 J/kg 4.3 K 0 % 0 % 0 % 0 m²/s² 0 0 13.66 1
08:00 0 J/kg 4.6 K 0 % 0 % 0 % 0 m²/s² 0 0 13.54 2
09:00 0 J/kg 5.0 K 0 % 0 % 0 % 0 m²/s² 0 0 12.32 1
10:00 0 J/kg 5.5 K 0 % 0 % 0 % 0 m²/s² 0 0 12.58 0
11:00 19 J/kg 5.2 K 0 % 0 % 0 % 0 m²/s² 0 0 12.52 2
12:00 8 J/kg 5.7 K 0 % 0 % 0 % 0 m²/s² 0 0 13.59 3
13:00 8 J/kg 6.1 K 0 % 0 % 0 % 0 m²/s² 0 0 15.07 80
14:00 8 J/kg 5.6 K 0 % 0 % 0 % 0 m²/s² 0 0 14.6 80
15:00 14 J/kg 4.6 K 0 % 0 % 0 % 0 m²/s² 0 0 14.02 80
16:00 23 J/kg 4.3 K 0 % 0 % 0 % 0 m²/s² 0 0 14.2 3
17:00 14 J/kg 4.5 K 0 % 0 % 0 % 0 m²/s² 0 0 13.86 80
18:00 4 J/kg 4.3 K 0 % 0 % 0 % 0 m²/s² 0 0 13.24 3
19:00 15 J/kg 3.8 K 0 % 0 % 0 % 0 m²/s² 0 0 12.71 80
20:00 2 J/kg 4.4 K 0 % 0 % 0 % 0 m²/s² 0 0 12.53 80
21:00 13 J/kg 4.2 K 0 % 0 % 0 % 0 m²/s² 0 0 11.19 80
22:00 52 J/kg 3.1 K 0 % 0 % 0 % 0 m²/s² 0 0 8.29 1
23:00 35 J/kg 3.2 K 0 % 0 % 0 % 0 m²/s² 0 0 6.92 2
 08:07     20:48    Daglengte: 12:41 Donderdag 02 Apr
00:00 31 J/kg 3.0 K 0 % 0 % 0 % 0 m²/s² 0 0 6.03 2
01:00 25 J/kg 3.1 K 0 % 0 % 0 % 0 m²/s² 0 0 5.38 2
02:00 25 J/kg 3.3 K 0 % 0 % 0 % 0 m²/s² 0 0 5.46 0
03:00 20 J/kg 3.7 K 0 % 0 % 0 % 0 m²/s² 0 0 5.65 0
04:00 15 J/kg 4.8 K 0 % 0 % 0 % 0 m²/s² 0 0 5.97 0
05:00 12 J/kg 5.1 K 0 % 0 % 0 % 0 m²/s² 0 0 6.03 0
06:00 15 J/kg 5.4 K 0 % 0 % 0 % 0 m²/s² 0 0 6.51 0
07:00 77 J/kg 5.9 K 0 % 0 % 0 % 0 m²/s² 0 0 6.26 0
08:00 38 J/kg 5.1 K 0 % 0 % 0 % 0 m²/s² 0 0 6.69 0
09:00 20 J/kg 4.7 K 0 % 0 % 0 % 0 m²/s² 0 0 4.91 0
10:00 47 J/kg 4.9 K 0 % 0 % 0 % 0 m²/s² 0 0 5.11 0
11:00 96 J/kg 4.6 K 0 % 0 % 0 % 0 m²/s² 0 0 4.87 0
12:00 167 J/kg 4.3 K 0 % 0 % 0 % 0 m²/s² 0 0 5.11 0
13:00 159 J/kg 5.3 K 0 % 0 % 0 % 0 m²/s² 0 0 8.09 1
14:00 132 J/kg 5.8 K 0 % 0 % 0 % 0 m²/s² 0 0 11.47 1
Temp Baro Wind Neerslag
  EWN Forecast EWN WRFDA DWD ICON FMI HIRLAM MET Norway GFS
 08:12     20:45    Daglengte: 12:33 Vandaag
17:00 17.3° 1009.1 hPa 4.8 m/s 0.8 mm 18.3° 1007.5 hPa 6.1 m/s 0.0 mm 14.6° 1009.2 hPa 2.8 m/s 0.2 mm 19.2° 1009.3 hPa 6.2 m/s 0.0 mm 17.3° 1009.5 hPa 4.5 m/s 16.7° 1008.2 hPa 6.8 m/s
20:00 14.4° 1008.1 hPa 3.8 m/s 1.4 mm 16.0° 1006.1 hPa 5.3 m/s 0.1 mm 13.3° 1008.4 hPa 2.6 m/s 4.2 mm 16.4° 1008.1 hPa 6.0 m/s 0.0 mm 14.2° 1008.5 hPa 3.6 m/s 12.7° 1006.8 hPa 2.4 m/s
23:00 12.8° 1007.6 hPa 2.1 m/s 0.5 mm 13.4° 1006.3 hPa 3.4 m/s 1.1 mm 13.0° 1007.0 hPa 1.9 m/s 0.2 mm 14.3° 1008.0 hPa 2.7 m/s 0.0 mm 11.8° 1008.0 hPa 1.0 m/s 11.8° 1006.5 hPa 1.7 m/s
 08:10     20:46    Daglengte: 12:36 Morgen
02:00 12.6° 1005.4 hPa 3.1 m/s 6.3 mm 12.1° 1004.1 hPa 4.8 m/s 28.6 mm 12.7° 1004.9 hPa 2.4 m/s 2.4 mm 13.6° 1005.7 hPa 2.3 m/s 0.0 mm 11.8° 1005.8 hPa 2.8 m/s 11.4° 1003.8 hPa 4.7 m/s
05:00 12.4° 1003.0 hPa 3.2 m/s 11.7 mm 12.3° 1001.1 hPa 5.4 m/s 56.7 mm 12.3° 1002.9 hPa 2.0 m/s 4.2 mm 13.4° 1003.4 hPa 3.6 m/s 0.0 mm 11.8° 1003.1 hPa 2.4 m/s 11.9° 1002.7 hPa 5.4 m/s
08:00 12.6° 1002.8 hPa 3.8 m/s 14.0 mm 12.8° 1001.5 hPa 4.6 m/s 58.4 mm 13.2° 1002.7 hPa 4.6 m/s 2.1 mm 12.6° 1002.6 hPa 6.0 m/s 0.0 mm 11.8° 1002.9 hPa 1.2 m/s 12.6° 1002.8 hPa 4.1 m/s
11:00 14.7° 1004.1 hPa 4.5 m/s 10.6 mm 16.1° 1002.8 hPa 6.0 m/s 60.6 mm 15.0° 1004.6 hPa 5.0 m/s 2.2 mm 15.4° 1003.8 hPa 5.5 m/s 0.0 mm 14.3° 1004.1 hPa 4.0 m/s 16.2° 1003.7 hPa 6.3 m/s
14:00 17.3° 1004.8 hPa 6.0 m/s 11.4 mm 18.3° 1004.2 hPa 9.0 m/s 63.5 mm 17.0° 1005.2 hPa 5.8 m/s 0.6 mm 17.5° 1004.7 hPa 6.4 m/s 0.0 mm 17.3° 1004.8 hPa 4.6 m/s 18.3° 1004.4 hPa 7.8 m/s
17:00 17.5° 1004.5 hPa 5.7 m/s 12.4 mm 19.6° 1003.7 hPa 9.2 m/s 63.7 mm 17.1° 1004.4 hPa 5.7 m/s 0.9 mm 17.7° 1004.7 hPa 6.9 m/s 0.0 mm 17.5° 1004.5 hPa 4.4 m/s 18.6° 1003.6 hPa 8.4 m/s
20:00 15.1° 1005.7 hPa 5.5 m/s 12.2 mm 17.1° 1004.6 hPa 8.2 m/s 64.2 mm 14.7° 1005.3 hPa 5.1 m/s 1.5 mm 15.6° 1005.6 hPa 5.7 m/s 0.0 mm 14.0° 1005.8 hPa 4.7 m/s 15.4° 1004.6 hPa 6.5 m/s
23:00 13.6° 1007.7 hPa 4.1 m/s 11.5 mm 15.1° 1006.9 hPa 5.7 m/s 64.9 mm 13.3° 1007.6 hPa 3.2 m/s 0.7 mm 13.7° 1008.1 hPa 4.0 m/s 0.0 mm 13.2° 1007.6 hPa 4.0 m/s 12.7° 1008.2 hPa 5.6 m/s
 08:09     20:47    Daglengte: 12:38 Woensdag 01 Apr
02:00 12.3° 1008.9 hPa 4.0 m/s 3.8 mm 13.5° 1008.5 hPa 5.9 m/s 65.7 mm 12.2° 1008.5 hPa 2.1 m/s 0.2 mm 11.8° 1009.9 hPa 3.8 m/s 0.0 mm 12.0° 1008.7 hPa 4.4 m/s 10.6° 1010.6 hPa 2.2 m/s
05:00 10.3° 1009.6 hPa 2.1 m/s 0.0 mm 9.5° 1009.7 hPa 2.6 m/s 65.7 mm 11.4° 1009.2 hPa 1.6 m/s 0.0 mm 8.6° 1010.3 hPa 2.1 m/s 0.0 mm 10.4° 1009.1 hPa 2.8 m/s 9.1° 1012.0 hPa 2.9 m/s
08:00 8.6° 1011.8 hPa 1.7 m/s 0.0 mm 7.9° 1011.7 hPa 1.2 m/s 65.7 mm 9.7° 1011.6 hPa 1.3 m/s 0.0 mm 5.6° 1012.0 hPa 1.4 m/s 0.0 mm 9.0° 1011.7 hPa 2.8 m/s 7.5° 1013.4 hPa 1.8 m/s
11:00 12.0° 1014.0 hPa 2.0 m/s 0.0 mm 12.2° 1013.5 hPa 1.6 m/s 65.7 mm 12.7° 1013.3 hPa 1.9 m/s 0.0 mm 11.4° 1014.5 hPa 3.1 m/s 10.8° 1014.5 hPa 0.9 m/s
14:00 15.4° 1013.3 hPa 3.9 m/s 0.0 mm 16.2° 1013.2 hPa 4.2 m/s 65.7 mm 13.0° 1012.9 hPa 4.1 m/s 1.0 mm 15.6° 1014.3 hPa 4.4 m/s 15.3° 1014.2 hPa 1.8 m/s
17:00 15.2° 1011.7 hPa 4.6 m/s 4.7 mm 17.9° 1011.4 hPa 6.1 m/s 65.7 mm 13.6° 1011.3 hPa 3.7 m/s 1.3 mm 15.0° 1013.1 hPa 4.5 m/s 15.1° 1012.9 hPa 3.4 m/s
20:00 13.1° 1012.3 hPa 4.1 m/s 9.4 mm 15.2° 1011.8 hPa 5.8 m/s 65.7 mm 11.7° 1012.0 hPa 2.9 m/s 1.5 mm 13.0° 1013.5 hPa 3.8 m/s 13.7° 1012.7 hPa 4.1 m/s
23:00 10.5° 1013.9 hPa 2.2 m/s 0.0 mm 11.4° 1013.8 hPa 2.7 m/s 65.7 mm 10.1° 1013.4 hPa 0.7 m/s 0.2 mm 10.3° 1014.6 hPa 2.3 m/s 9.8° 1013.9 hPa 2.0 m/s
 08:07     20:48    Daglengte: 12:41 Donderdag 02 Apr
02:00 9.9° 1013.5 hPa 2.1 m/s 5.1 mm 10.8° 1013.8 hPa 1.7 m/s 65.7 mm 8.7° 1014.4 hPa 0.9 m/s 0.0 mm 9.9° 1013.5 hPa 2.4 m/s 9.7° 1012.5 hPa 2.7 m/s
05:00 9.4° 1012.5 hPa 1.7 m/s 26.9 mm 10.5° 1012.1 hPa 1.6 m/s 65.7 mm 7.8° 1014.6 hPa 1.0 m/s 0.0 mm 9.2° 1012.6 hPa 2.0 m/s 10.6° 1010.0 hPa 6.3 m/s
08:00 8.8° 1012.0 hPa 1.8 m/s 25.2 mm 11.6° 1010.6 hPa 4.2 m/s 66.1 mm 6.3° 1016.1 hPa 1.1 m/s 0.0 mm 8.5° 1011.8 hPa 1.6 m/s 8.9° 1009.6 hPa 0.8 m/s
11:00 11.9° 1013.7 hPa 1.2 m/s 0.0 mm 12.1° 1010.7 hPa 2.5 m/s 80.0 mm 11.5° 1017.5 hPa 0.8 m/s 0.0 mm 11.9° 1013.3 hPa 1.1 m/s 11.3° 1011.2 hPa 1.9 m/s
14:00 15.8° 1014.8 hPa 1.3 m/s 0.0 mm 16.2° 1010.7 hPa 1.8 m/s 120.4 mm 16.3° 1017.2 hPa 2.1 m/s 0.0 mm 15.4° 1014.8 hPa 0.7 m/s 14.1° 1011.9 hPa 2.1 m/s
17:00 16.3° 1014.3 hPa 2.9 m/s 44.5 mm 16.3° 1014.5 hPa 3.0 m/s 16.4° 1011.1 hPa 2.7 m/s 44.5 mm
20:00 16.6° 1014.2 hPa 4.0 m/s 44.6 mm 16.7° 1014.4 hPa 4.1 m/s 15.4° 1012.1 hPa 2.3 m/s 44.6 mm
23:00 12.8° 1015.4 hPa 2.7 m/s 44.6 mm 12.9° 1015.5 hPa 2.8 m/s 11.2° 1014.3 hPa 1.6 m/s 44.6 mm
 08:06     20:49    Daglengte: 12:43 Vrijdag 03 Apr
02:00 9.2° 1016.4 hPa 1.5 m/s 44.6 mm 9.2° 1016.6 hPa 1.5 m/s 9.6° 1014.7 hPa 1.8 m/s 44.6 mm
05:00 8.0° 1015.7 hPa 1.7 m/s 44.6 mm 7.9° 1015.9 hPa 1.7 m/s 8.4° 1013.6 hPa 2.1 m/s 44.6 mm
08:00 6.7° 1015.1 hPa 2.0 m/s 44.6 mm 6.7° 1015.2 hPa 1.9 m/s 7.3° 1013.7 hPa 2.7 m/s 44.6 mm
11:00 12.9° 1014.8 hPa 2.7 m/s 44.6 mm 12.9° 1015.0 hPa 2.5 m/s 13.2° 1013.4 hPa 5.2 m/s 44.6 mm
14:00 19.1° 1014.6 hPa 3.4 m/s 44.6 mm 19.1° 1014.7 hPa 3.1 m/s 19.2° 1013.1 hPa 6.3 m/s 44.6 mm
17:00 19.5° 1012.8 hPa 3.6 m/s 44.6 mm 19.3° 1013.0 hPa 3.5 m/s 21.5° 1010.8 hPa 5.1 m/s 44.6 mm
20:00 19.3° 1011.1 hPa 3.8 m/s 44.6 mm 19.5° 1011.2 hPa 3.8 m/s 17.7° 1009.7 hPa 4.1 m/s 44.6 mm
23:00 15.4° 1012.1 hPa 3.5 m/s 44.6 mm 15.7° 1012.2 hPa 3.4 m/s 12.7° 1011.0 hPa 4.5 m/s 44.6 mm
 08:04     20:49    Daglengte: 12:45 Zaterdag 04 Apr
02:00 11.9° 1013.0 hPa 3.1 m/s 44.6 mm 11.9° 1013.2 hPa 3.0 m/s 11.7° 1010.7 hPa 4.5 m/s 44.6 mm
05:00 12.5° 1012.3 hPa 4.1 m/s 44.6 mm 12.5° 1012.7 hPa 4.0 m/s 12.1° 1008.9 hPa 6.1 m/s 44.6 mm
08:00 13.0° 1011.8 hPa 5.0 m/s 44.6 mm 13.1° 1012.1 hPa 4.9 m/s 12.2° 1008.8 hPa 5.9 m/s 44.6 mm
11:00 15.3° 1012.4 hPa 3.9 m/s 44.6 mm 15.3° 1012.7 hPa 3.8 m/s 15.3° 1009.0 hPa 5.7 m/s 44.6 mm
14:00 17.3° 1013.1 hPa 2.8 m/s 44.7 mm 17.5° 1013.3 hPa 2.6 m/s 14.8° 1010.5 hPa 5.0 m/s 44.7 mm
17:00 16.5° 1013.5 hPa 2.3 m/s 47.1 mm 16.8° 1013.8 hPa 2.2 m/s 13.4° 1010.4 hPa 3.2 m/s 47.1 mm
20:00 15.8° 1013.9 hPa 2.1 m/s 51.8 mm 16.1° 1014.2 hPa 1.9 m/s 12.4° 1010.6 hPa 4.6 m/s 51.8 mm
23:00 14.1° 1015.2 hPa 1.7 m/s 52.2 mm 14.2° 1015.4 hPa 1.5 m/s 12.6° 1013.0 hPa 3.7 m/s 52.2 mm
 08:03     20:50    Daglengte: 12:47 Zondag 05 Apr
02:00 12.3° 1016.3 hPa 1.3 m/s 52.2 mm 12.3° 1016.5 hPa 1.2 m/s 11.8° 1013.7 hPa 2.5 m/s 52.2 mm
05:00 11.2° 1017.1 hPa 1.7 m/s 52.2 mm 11.2° 1017.4 hPa 1.5 m/s 11.3° 1013.3 hPa 3.0 m/s 52.2 mm
08:00 10.2° 1018.0 hPa 1.9 m/s 52.2 mm 10.1° 1018.3 hPa 1.9 m/s 10.9° 1014.7 hPa 2.4 m/s 52.2 mm
11:00 14.8° 1019.3 hPa 2.2 m/s 52.2 mm 14.7° 1019.6 hPa 2.1 m/s 15.4° 1015.9 hPa 3.6 m/s 52.2 mm
14:00 19.4° 1020.6 hPa 2.4 m/s 52.2 mm 19.3° 1020.9 hPa 2.3 m/s 20.4° 1017.2 hPa 3.9 m/s 52.2 mm
17:00 19.2° 1020.5 hPa 2.2 m/s 52.8 mm 19.0° 1020.8 hPa 2.0 m/s 21.6° 1016.6 hPa 5.0 m/s 52.8 mm
20:00 18.6° 1020.5 hPa 1.9 m/s 52.9 mm 18.6° 1020.8 hPa 1.7 m/s 18.1° 1016.9 hPa 3.8 m/s 52.9 mm
23:00 16.3° 1021.9 hPa 1.4 m/s 52.9 mm 16.6° 1022.2 hPa 1.2 m/s 13.9° 1019.1 hPa 3.0 m/s 52.9 mm
 08:01     20:51    Daglengte: 12:50 Maandag 06 Apr
02:00 14.4° 1023.3 hPa 1.0 m/s 52.9 mm 14.5° 1023.6 hPa 0.8 m/s 13.1° 1020.3 hPa 2.8 m/s 52.9 mm
05:00 13.2° 1023.4 hPa 1.3 m/s 52.9 mm 13.2° 1023.7 hPa 1.2 m/s 12.6° 1020.1 hPa 2.9 m/s 52.9 mm
08:00 12.0° 1023.4 hPa 1.8 m/s 52.9 mm 12.0° 1023.7 hPa 1.6 m/s 12.0° 1020.6 hPa 3.5 m/s 52.9 mm
11:00 16.6° 1024.0 hPa 1.4 m/s 52.9 mm 16.5° 1024.2 hPa 1.1 m/s 17.9° 1021.3 hPa 4.8 m/s 52.9 mm
14:00 21.2° 1024.5 hPa 0.8 m/s 52.9 mm 21.0° 1024.8 hPa 0.6 m/s 22.9° 1021.3 hPa 2.6 m/s 52.9 mm
20:00 21.0° 1022.4 hPa 2.1 m/s 52.9 mm 21.0° 1022.7 hPa 2.3 m/s 21.4° 1019.5 hPa 0.3 m/s 52.9 mm
 08:00     20:52    Daglengte: 12:52 Dinsdag 07 Apr
02:00 13.9° 1024.3 hPa 1.2 m/s 52.9 mm 13.9° 1024.5 hPa 1.2 m/s 14.3° 1021.6 hPa 1.6 m/s 52.9 mm
08:00 11.8° 1023.2 hPa 2.8 m/s 52.9 mm 11.8° 1023.5 hPa 2.8 m/s 12.0° 1020.5 hPa 3.0 m/s 52.9 mm
14:00 21.5° 1024.0 hPa 1.0 m/s 52.9 mm 21.4° 1024.3 hPa 1.0 m/s 22.8° 1020.7 hPa 1.5 m/s 52.9 mm
20:00 21.9° 1021.8 hPa 1.6 m/s 52.9 mm 21.9° 1022.0 hPa 1.5 m/s 22.0° 1019.2 hPa 2.6 m/s 52.9 mm
 07:58     20:53    Daglengte: 12:55 Woensdag 08 Apr
02:00 16.1° 1023.9 hPa 1.3 m/s 52.9 mm 16.1° 1024.1 hPa 1.3 m/s 16.4° 1021.5 hPa 1.5 m/s 52.9 mm
08:00 14.3° 1023.6 hPa 1.3 m/s 52.9 mm 14.1° 1023.9 hPa 1.3 m/s 15.9° 1020.6 hPa 1.2 m/s 52.9 mm
14:00 22.6° 1024.0 hPa 0.3 m/s 52.9 mm 22.4° 1024.3 hPa 0.2 m/s 24.7° 1020.5 hPa 0.8 m/s 52.9 mm
20:00 23.3° 1022.1 hPa 1.3 m/s 53.1 mm 23.3° 1022.5 hPa 1.1 m/s 23.0° 1018.3 hPa 3.5 m/s 53.1 mm
 07:57     20:54    Daglengte: 12:57 Donderdag 09 Apr
02:00 16.9° 1019.7 hPa 1.9 m/s 53.2 mm 16.9° 1019.7 hPa 1.9 m/s 53.2 mm
08:00 14.9° 1017.4 hPa 1.7 m/s 53.2 mm 14.9° 1017.4 hPa 1.7 m/s 53.2 mm
14:00 22.6° 1021.3 hPa 0.4 m/s 0.5 mm
20:00 21.9° 1019.1 hPa 0.9 m/s 0.2 mm
 07:56     20:55    Daglengte: 12:59 Vrijdag 10 Apr
02:00 14.8° 1020.8 hPa 0.8 m/s 0.0 mm
08:00 12.7° 1020.2 hPa 1.1 m/s 0.0 mm
14:00 23.1° 1020.7 hPa 0.7 m/s 0.0 mm
20:00 22.7° 1018.5 hPa 0.7 m/s 0.0 mm
 07:54     20:56    Daglengte: 13:02 Zaterdag 11 Apr
02:00 14.9° 1020.1 hPa 0.9 m/s 0.0 mm
08:00 13.1° 1019.6 hPa 1.9 m/s 0.0 mm
14:00 23.4° 1020.1 hPa 1.6 m/s 0.2 mm
20:00 22.5° 1018.1 hPa 0.2 m/s 0.5 mm
 07:53     20:57    Daglengte: 13:04 Zondag 12 Apr
02:00 14.5° 1019.9 hPa 0.6 m/s 0.0 mm
08:00 12.1° 1019.4 hPa 1.1 m/s 0.0 mm
14:00 22.8° 1019.5 hPa 0.6 m/s 0.3 mm
20:00 22.1° 1017.0 hPa 0.7 m/s 0.3 mm
 07:51     20:58    Daglengte: 13:07 Maandag 13 Apr
02:00 14.2° 1018.5 hPa 0.3 m/s 0.1 mm
08:00 12.1° 1017.9 hPa 1.2 m/s 0.0 mm
14:00 22.6° 1017.9 hPa 0.4 m/s 0.0 mm
20:00 21.8° 1015.7 hPa 1.0 m/s 0.2 mm
 07:50     20:58    Daglengte: 13:08 Dinsdag 14 Apr
02:00 13.8° 1017.2 hPa 0.7 m/s 0.0 mm
08:00 11.7° 1016.8 hPa 1.1 m/s 0.0 mm
14:00 22.7° 1017.1 hPa 0.7 m/s 0.0 mm
FMI Hirlam - 7.5 km EWN WRFDA - 12 km DWD ICON - 7 km GFS - 25 km Basiskaart






























































Updatetijd (Europe/Amsterdam) Resolutie Lengte Stap
FMI Hirlam 13:30, 19:30, 01:30, 07:30 7.5 km 49h 1h
EWN WRFDA 09:30, 15:30, 21:30, 03:30 12 km 73h 1h
DWD ICON 11:45, 17:45, 23:45, 05:45 7 km 75h 1h
GFS 13:45, 19:45, 01:45, 07:45 25 km 237h 3h
30+ mm
25-30 mm
20-25 mm
15-20 mm
10-15 mm
6-10 mm
4-6 mm
2-4 mm
1-2 mm
0.5-1 mm
0.2-0.5 mm
0.1-0.2 mm
30+ mm
25-30 mm
20-25 mm
15-20 mm
10-15 mm
6-10 mm
4-6 mm
2-4 mm
1-2 mm
0.5-1 mm
0.2-0.5 mm
0.1-0.2 mm
Sneeuwval
Natte sneeuw
Hagel
Vorst
30+ mm
25-30 mm
20-25 mm
15-20 mm
10-15 mm
6-10 mm
4-6 mm
2-4 mm
1-2 mm
0.5-1 mm
0.2-0.5 mm
0.1-0.2 mm
Sneeuwval
Natte sneeuw
Hagel
Vorst
Onweer
50 mm
40 mm
30 mm
26 mm
22 mm
18 mm
14 mm
10 mm
9 mm
8 mm
7 mm
6 mm
5 mm
4.5 mm
4 mm
3.5 mm
3 mm
2.5 mm
2 mm
1.5 mm
1 mm
0.8 mm
0.6 mm
0.4 mm
0.2 mm
0.05 mm
35°
30°
25°
20°
15°
10°
-5°
-10°
-15°
-20°
-25°
-30°
-35°
120> km/h
105 km/h
90 km/h
75 km/h
60 km/h
50 km/h
40 km/h
30 km/h
20 km/h
10 km/h
0 km/h
2600 J/kg
2400 J/kg
2200 J/kg
2000 J/kg
1800 J/kg
1600 J/kg
1400 J/kg
1200 J/kg
1000 J/kg
800 J/kg
600 J/kg
400 J/kg
200 J/kg
70 dBZ
65 dBZ
60 dBZ
55 dBZ
50 dBZ
45 dBZ
40 dBZ
35 dBZ
30 dBZ
25 dBZ
20 dBZ
15 dBZ
10 dBZ
5 dBZ
-1 K
-2 K
-3 K
-4 K
-5 K
-6 K
-7 K
-8 K
-9 K
950 m²/s²
900 m²/s²
850 m²/s²
800 m²/s²
750 m²/s²
700 m²/s²
650 m²/s²
600 m²/s²
550 m²/s²
500 m²/s²
450 m²/s²
400 m²/s²
350 m²/s²
300 m²/s²
250 m²/s²
200 m²/s²
150 m²/s²
100 m²/s²
46 m/s
44 m/s
42 m/s
40 m/s
38 m/s
36 m/s
34 m/s
32 m/s
30 m/s
28 m/s
26 m/s
24 m/s
22 m/s
20 m/s
16 m/s
12 m/s
8 m/s
4 m/s
30 m/s
28 m/s
26 m/s
24 m/s
22 m/s
20 m/s
18 m/s
16 m/s
14 m/s
12 m/s
10 m/s
8 m/s
6 m/s
4 m/s
2 m/s
3.0
2.8
2.6
2.4
2.2
2.0
1.8
1.6
1.4
1.2
1.0
0.8
0.6
0.4
0.2
15
14
13
12
11
10
9
8
7
6
5
4
3
2
1
90%
80%
70%
60%
50%
40%
30%
20%
10%
42
40
38
36
34
32
30
28
26
24
22
20
18
16
14
12
90+ cm
80-90 cm
70-80 cm
60-70 cm
50-60 cm
40-50 cm
30-40 cm
20-30 cm
10-20 cm
1-10 cm
Sneeuwval
Natte sneeuw
Regen
>120 mm
115 mm
110 mm
105 mm
100 mm
95 mm
90 mm
85 mm
80 mm
75 mm
70 mm
65 mm
60 mm
55 mm
50 mm
45 mm
45 mm
40 mm
35 mm
30 mm
25 mm
20 mm
15 mm
10 mm
5 mm
0.1 mm
960 hPa
880 hPa
800 hPa
720 hPa
640 hPa
560 hPa
584 gpdm
568 gpdm
552 gpdm
536 gpdm
520 gpdm
504 gpdm